Flag for Germany Weather past 2 weeks in Chemnitz, Saxony, Germany

Now
75 °F

Passing clouds.


Feels Like: 78 °F
Forecast: 60 / 82 °F
Wind: 7 mph from Northeast

Location: Altenburg Nobitz

Current Time: Aug 1, 2014 at 12:49:27 PM

Latest Report: Aug 1, 2014 at 11:50 AM


Visibility: N/A

Pressure: 29.95 "Hg

Humidity: 44%

Dew point: 52 °F

Location of ChemnitzLocation

Historic Weather in Chemnitz — Graph

°F

Chemnitz temperature yesterday

Maximum temperature yesterday: 75 °F (at 4:20 PM)
Minimum temperature yesterday: 63 °F (at 8:20 AM)
Average temperature yesterday: 71 °F

Past Weeks' High & Low Weather Summary

 TemperatureHumidityPressure
High91 °F (Jul 20, 1:50 PM)100% (Jul 25, 8:20 AM)30.18 "Hg (Jul 25, 8:20 AM)
Low61 °F (Jul 25, 8:20 AM)26% (Jul 20, 1:50 PM)29.74 "Hg (Jul 29, 2:20 PM)
Average75 °F62%29.94 "Hg
* Reported Jul 17 11:20 AM — Aug 1 11:20 AM, Chemnitz, Weather by CustomWeather, © 2014

Note: Actual official high and low records may vary slightly from our data, if they occured in-between our weather recording intervals... More about our weather records

Advertising

Chemnitz weather history for previous 24 hours

 ConditionsComfort  
Time TempWeatherWind HumidityBarometerVisibility
11:20 AM
Aug 1
75 °FPassing clouds.6 mph44%29.95 "HgN/A
10:50 AM73 °FPassing clouds.5 mph50%29.95 "HgN/A
10:20 AM73 °FPassing clouds.5 mph53%29.95 "HgN/A
9:50 AM72 °FPassing clouds.3 mph57%29.98 "HgN/A
9:20 AM72 °FSunny.2 mph61%29.98 "Hg10 mi
8:50 AM68 °FSunny.2 mph69%29.98 "Hg10 mi
8:20 AM66 °FSunny.2 mph73%29.98 "Hg10 mi
7:50 PM
Jul 31
73 °FSunny.3 mph50%29.95 "Hg10 mi
7:20 PM73 °FSunny.6 mph50%29.95 "Hg10 mi
6:50 PM73 °FSunny.6 mph47%29.95 "Hg10 mi
6:20 PM73 °FPassing clouds.6 mph47%29.95 "HgN/A
5:50 PM75 °FSunny.7 mph44%29.98 "Hg10 mi
5:20 PM75 °FPassing clouds.6 mph44%29.98 "HgN/A
4:50 PM75 °FPassing clouds.3 mph47%29.98 "HgN/A
4:20 PM75 °FPassing clouds.6 mph47%29.98 "HgN/A
3:50 PM73 °FPassing clouds.8 mph47%29.98 "HgN/A
3:20 PM73 °FPassing clouds.7 mph50%29.98 "HgN/A
2:50 PM73 °FScattered clouds.7 mph50%29.98 "HgN/A
2:20 PM72 °FScattered clouds.7 mph53%29.98 "HgN/A
1:50 PM72 °FScattered clouds.6 mph57%29.98 "HgN/A
1:20 PM72 °FScattered clouds.5 mph61%30.01 "HgN/A
12:50 PM70 °FScattered clouds.2 mph64%30.01 "HgN/A
12:20 PM66 °FScattered clouds.7 mph73%30.01 "HgN/A
Weather by CustomWeather, © 2014

See weather overviewHow to use our weather pages